Artesia, NM

1:40 AM MDT on September 19, 2019 (GMT -0600)
Artesia Municipal

Weather History for KATS - August, 2019

Change the Weather History Date:

Sunday, August 18, 2019

  Actual Average Record
Temperature  
Mean Temperature 86 °F -  
Max Temperature 102 °F 92 °F 102 °F (1969)
Min Temperature 71 °F 62 °F 54 °F (1979)
Cooling Degree Days 22    
Growing Degree Days 36 (Base 50)    
Moisture  
Dew Point 47 °F    
Average Humidity 26    
Maximum Humidity 53    
Minimum Humidity 13    
Precipitation  
Precipitation 0.00 in - - ()
Sea Level Pressure  
Sea Level Pressure 29.93 in    
Wind  
Wind Speed 6 mph (SW)    
Max Wind Speed 13 mph    
Max Gust Speed 14 mph    
Visibility 10 miles    
Events      
Averages and records for this station are not official NWS values.
T = Trace of Precipitation, MM = Missing Value Source: NWS Daily Summary

Daily Weather History Graph

Daily Weather History Graph

Search for Another Location

Airport or City:

Astronomy

Aug. 18, 2019 Rise Set
Actual Time 6:23 AM MDT 7:39 PM MDT
Civil Twilight 5:57 AM MDT 8:05 PM MDT
Nautical Twilight 5:26 AM MDT 8:36 PM MDT
Astronomical Twilight 4:54 AM MDT 9:08 PM MDT
Moon 9:44 PM MDT (8/18) 9:03 AM MDT (8/18)
Length of Visible Light 14h 08m
Length of Day
13h 16m
Waning Gibbous, 91% of the Moon is Illuminated
Aug 18
Waning Gibbous
Aug 23
Last Quarter
Aug 30
New
Sep 5
First Quarter
Sep 13
Full

Hourly Weather History & Observations

Time (MDT) Temp. Heat Index Dew Point Humidity Pressure Visibility Wind Dir Wind Speed Gust Speed Precip Events Conditions
12:15 AM 80.6 °F 80.5 °F 55.4 °F 42% 29.88 in 10.0 mi WNW 4.6 mph - N/A   Clear
12:35 AM 82.4 °F - 46.4 °F 28% 29.88 in 10.0 mi NW 5.8 mph 11.5 mph N/A   Clear
12:55 AM 80.6 °F - 44.6 °F 28% 29.88 in 10.0 mi WNW 6.9 mph - N/A   Clear
1:15 AM 80.6 °F - 44.6 °F 28% 29.88 in 10.0 mi WNW 8.1 mph - N/A   Clear
1:35 AM 78.8 °F - 44.6 °F 30% 29.88 in 10.0 mi West 12.7 mph - N/A   Clear
1:55 AM 78.8 °F - 44.6 °F 30% 29.89 in 10.0 mi WSW 6.9 mph - N/A   Clear
2:15 AM 80.6 °F - 42.8 °F 26% 29.89 in 10.0 mi Variable 6.9 mph - N/A   Clear
2:35 AM 77.0 °F - 46.4 °F 34% 29.89 in 10.0 mi West 8.1 mph - N/A   Clear
2:55 AM 77.0 °F - 46.4 °F 34% 29.89 in 10.0 mi WSW 10.4 mph - N/A   Clear
3:15 AM 77.0 °F - 46.4 °F 34% 29.90 in 10.0 mi SW 10.4 mph - N/A   Clear
3:35 AM 75.2 °F - 48.2 °F 38% 29.89 in 10.0 mi SW 10.4 mph - N/A   Clear
4:15 AM 77.0 °F - 46.4 °F 34% 29.90 in 10.0 mi Calm Calm - N/A   Clear
4:35 AM 75.2 °F - 50.0 °F 41% 29.90 in 10.0 mi ESE 6.9 mph - N/A   Clear
4:55 AM 73.4 °F - 55.4 °F 53% 29.90 in 10.0 mi Calm Calm - N/A   Clear
5:15 AM 75.2 °F - 55.4 °F 50% 29.91 in 10.0 mi Calm Calm - N/A   Clear
5:35 AM 73.4 °F - 55.4 °F 53% 29.91 in 10.0 mi WSW 4.6 mph - N/A   Clear
5:55 AM 73.4 °F - 53.6 °F 50% 29.91 in 10.0 mi West 4.6 mph - N/A   Clear
6:15 AM 71.6 °F - 51.8 °F 50% 29.92 in 10.0 mi NNW 5.8 mph - N/A   Clear
6:35 AM 71.6 °F - 50.0 °F 46% 29.92 in 10.0 mi NNW 5.8 mph - N/A   Clear
6:55 AM 73.4 °F - 46.4 °F 38% 29.93 in 10.0 mi Calm Calm - N/A   Clear
7:15 AM 73.4 °F - 46.4 °F 38% 29.94 in 10.0 mi Calm Calm - N/A   Clear
7:35 AM 75.2 °F - 44.6 °F 34% 29.95 in 10.0 mi NNW 3.5 mph - N/A   Clear
7:55 AM 80.6 °F - 44.6 °F 28% 29.96 in 10.0 mi NNW 4.6 mph - N/A   Clear
8:15 AM 82.4 °F - 44.6 °F 26% 29.96 in 10.0 mi NNW 5.8 mph - N/A   Clear
8:35 AM 84.2 °F - 44.6 °F 25% 29.97 in 10.0 mi NW 9.2 mph - N/A   Clear
8:55 AM 84.2 °F - 46.4 °F 27% 29.97 in 10.0 mi NNW 6.9 mph - N/A   Clear
9:15 AM 84.2 °F - 48.2 °F 29% 29.98 in 10.0 mi NNW 8.1 mph - N/A   Clear
9:35 AM 84.2 °F - 50.0 °F 30% 29.98 in 10.0 mi NNE 6.9 mph - N/A   Clear
9:55 AM 86.0 °F - 50.0 °F 29% 29.98 in 10.0 mi NNE 8.1 mph - N/A   Clear
10:15 AM 89.6 °F - 50.0 °F 26% 29.98 in 10.0 mi NE 8.1 mph - N/A   Clear
10:35 AM 89.6 °F - 50.0 °F 26% 29.99 in 10.0 mi NE 5.8 mph - N/A   Clear
10:55 AM 89.6 °F - 51.8 °F 27% 29.99 in 10.0 mi Calm Calm - N/A   Clear
11:15 AM 91.4 °F - 50.0 °F 24% 29.98 in 10.0 mi Variable 5.8 mph 12.7 mph N/A   Clear
11:35 AM 95.0 °F - 48.2 °F 20% 29.98 in 10.0 mi Variable 5.8 mph 12.7 mph N/A   Clear
11:55 AM 95.0 °F - 44.6 °F 18% 29.98 in 10.0 mi Variable 4.6 mph 11.5 mph N/A   Clear
12:15 PM 96.8 °F - 44.6 °F 17% 29.97 in 10.0 mi Calm Calm - N/A   Clear
12:35 PM 98.6 °F - 44.6 °F 16% 29.97 in 10.0 mi Variable 5.8 mph - N/A   Clear
12:55 PM 98.6 °F - 42.8 °F 15% 29.96 in 10.0 mi Variable 4.6 mph - N/A   Clear
1:15 PM 98.6 °F - 42.8 °F 15% 29.96 in 10.0 mi Variable 5.8 mph - N/A   Clear
1:35 PM 100.4 °F - 41.0 °F 13% 29.95 in 10.0 mi NNE 5.8 mph - N/A   Clear
1:55 PM 100.4 °F - 42.8 °F 14% 29.95 in 10.0 mi Variable 4.6 mph - N/A   Clear
2:15 PM 100.4 °F - 42.8 °F 14% 29.94 in 10.0 mi Calm Calm - N/A   Clear
2:35 PM 102.2 °F - 44.6 °F 14% 29.93 in 10.0 mi South 10.4 mph - N/A   Clear
2:55 PM 102.2 °F - 44.6 °F 14% 29.93 in 10.0 mi SE 8.1 mph - N/A   Clear
3:15 PM 102.2 °F - 44.6 °F 14% 29.92 in 10.0 mi Variable 6.9 mph - N/A   Clear
3:35 PM 102.2 °F - 44.6 °F 14% 29.91 in 10.0 mi East 9.2 mph - N/A   Clear
3:55 PM 102.2 °F - 46.4 °F 15% 29.91 in 10.0 mi SE 6.9 mph - N/A   Clear
4:15 PM 102.2 °F - 44.6 °F 14% 29.90 in 10.0 mi Variable 3.5 mph - N/A   Clear
4:35 PM 102.2 °F - 46.4 °F 15% 29.90 in 10.0 mi SSE 10.4 mph - N/A   Clear
4:55 PM 102.2 °F - 46.4 °F 15% 29.90 in 10.0 mi SSE 10.4 mph - N/A   Clear
5:15 PM 102.2 °F - 46.4 °F 15% 29.90 in 10.0 mi SSE 11.5 mph - N/A   Clear
5:35 PM 102.2 °F - 46.4 °F 15% 29.89 in 10.0 mi SSW 5.8 mph 13.8 mph N/A   Clear
5:55 PM 102.2 °F - 46.4 °F 15% 29.89 in 10.0 mi South 6.9 mph - N/A   Clear
6:15 PM 102.2 °F - 46.4 °F 15% 29.89 in 10.0 mi South 10.4 mph - N/A   Clear
6:35 PM 100.4 °F - 44.6 °F 15% 29.88 in 10.0 mi South 9.2 mph - N/A   Clear
6:55 PM 100.4 °F - 46.4 °F 16% 29.89 in 10.0 mi South 8.1 mph - N/A   Clear
7:15 PM 98.6 °F - 48.2 °F 18% 29.89 in 10.0 mi SSE 8.1 mph - N/A   Clear
7:35 PM 96.8 °F - 48.2 °F 19% 29.89 in 10.0 mi SSE 9.2 mph - N/A   Clear
7:55 PM 93.2 °F - 50.0 °F 23% 29.90 in 10.0 mi SSE 8.1 mph - N/A   Clear
8:15 PM 91.4 °F - 50.0 °F 24% 29.90 in 10.0 mi South 6.9 mph - N/A   Clear
8:35 PM 89.6 °F - 50.0 °F 26% 29.91 in 10.0 mi South 6.9 mph - N/A   Clear
8:55 PM 87.8 °F - 48.2 °F 25% 29.92 in 10.0 mi SSW 6.9 mph - N/A   Clear
9:15 PM 87.8 °F - 48.2 °F 25% 29.93 in 10.0 mi SSW 6.9 mph - N/A   Clear
9:35 PM 89.6 °F - 48.2 °F 24% 29.93 in 10.0 mi SW 9.2 mph - N/A   Clear
9:55 PM 89.6 °F - 48.2 °F 24% 29.93 in 10.0 mi SSW 9.2 mph - N/A   Clear
10:15 PM 87.8 °F - 48.2 °F 25% 29.94 in 10.0 mi SW 8.1 mph - N/A   Clear
10:35 PM 87.8 °F - 46.4 °F 24% 29.94 in 10.0 mi SW 10.4 mph - N/A   Clear
10:55 PM 87.8 °F - 46.4 °F 24% 29.95 in 10.0 mi WSW 10.4 mph - N/A   Clear
11:15 PM 87.8 °F - 46.4 °F 24% 29.94 in 10.0 mi WSW 6.9 mph - N/A   Clear
11:35 PM 87.8 °F - 44.6 °F 22% 29.94 in 10.0 mi WSW 11.5 mph - N/A   Clear
11:55 PM 87.8 °F - 46.4 °F 24% 29.95 in 10.0 mi SW 10.4 mph - N/A   Clear